{"data":{"norad_id":57054,"intl_designator":"2023-088G","name":"STARLINK-5881","alt_names":[],"object_type":"PAYLOAD","status":"ACTIVE","operator":null,"country":"US","launch_date":"2023-06-22","launch_site_code":"AFWTR","launch_vehicle":null,"mission":null,"orbit_class":"UNKNOWN","rcs_meters":null,"size_class":null,"mass_kg":null,"dimensions":null,"purposes":["comms"],"wikipedia_slug":null,"has_3d_model":false,"image_url":null,"decayed_at":null,"tle_current":{"epoch":"2026-09-20T15:50:37.539744Z","epoch_age_seconds":104021,"freshness":"FRESH","line1":"1 57054U 23088G   26263.66015671  .00000879  00000+0  41478-4 0  9994","line2":"2 57054  43.0020  89.3130 0001518 257.3502 102.7180 15.27579346180158","mean_motion":15.27579346,"eccentricity":0.0001518,"inclination_deg":43.002,"raan_deg":89.313,"arg_perigee_deg":257.3502,"mean_anomaly_deg":102.718,"bstar":4.1478e-5,"rev_number":18015,"period_min":94.266789071918,"perigee_km":482.00952600498,"apogee_km":484.09258269828,"semimajor_km":6861.1880543516,"source":"CELESTRAK","updated_at":"2026-09-21T09:00:33.548996Z"}}}